Station CLKN7 - Cape Lookout, NC Image indicating link to RSS feed of recent meteorological observations for station CLKN7


Conditions at CLKN7 as of
(5:00 am EDT)
0900 GMT on 06/17/2024:
     

Click on the graph icon in the table below to see a time series plot of the last five days of that observation.

5-day plot - Wind Direction Wind Direction (WDIR): E ( 90 deg true )
5-day plot - Wind Speed Wind Speed (WSPD): 11 kts
5-day plot - Wind Gust Wind Gust (GST): 13 kts
5-day plot - Atmospheric Pressure Atmospheric Pressure (PRES):30.19 in
5-day plot - Pressure Tendency Pressure Tendency (PTDY):-0.01 in ( Falling )
5-day plot - Air Temperature Air Temperature (ATMP): 77.0 °F
5-day plot - Wind Speed at 10 Meters Wind Speed at 10 meters (WSPD10M): 12 kts
5-day plot - Wind Speed at 20 Meters Wind Speed at 20 meters (WSPD20M): 12 kts
5-day plot -  Wind Speed, Wind Gust and Atmospheric Pressure Combined plot of Wind Speed, Gust, and Air Pressure
Continuous Winds
TIME
(EDT)
5-day plot - Wind Direction WDIR 5-day plot - Wind Speed WSPD
5:00 amE ( 83 deg ) 11 kts
4:50 amENE ( 78 deg ) 11 kts
4:40 amENE ( 77 deg ) 11 kts
4:30 amE ( 82 deg ) 12 kts
4:20 amE ( 79 deg ) 12 kts
4:10 amE ( 80 deg ) 13 kts
 
Peak gust during the measurement hour
TIME
(EDT)
5-day plot - Gust Direction GDR 5-day plot - Gust Speed GST
4:04 amE ( 80 deg ) 15 kts
Previous observations
TIME
(EDT)
5-day plot - Wind Direction
WDIR
 
5-day plot - Wind Speed
WSPD
kts
5-day plot - Wind Gust
GST
kts
5-day plot - Wave Height
WVHT
ft
5-day plot - Dominant Wave Period
DPD
sec
5-day plot - Average Wave Period
APD
sec
5-day plot - Mean Wave Direction
MWD
 
5-day plot - Atmospheric Pressure
PRES
in
5-day plot - Pressure Tendency
PTDY
in
5-day plot - Air Temperature
ATMP
°F
5-day plot - Water Temperature
WTMP
°F
5-day plot - Dew Point
DEWP
°F
5-day plot - Salinity
SAL
psu
5-day plot - Visibility
VIS
nmi
5-day plot - Tide (above MLLW)
TIDE
ft
2024-06-17 04:00 am E 12 14----30.19+0.00 77.0-----
2024-06-17 03:00 am E 9 10----30.20+0.02 77.2-----
2024-06-17 02:00 am E 10 11----30.20+0.01 77.4-----
2024-06-17 01:00 am E 17 18----30.19+0.00 77.4-----
2024-06-17 12:00 am E 17 18----30.18+0.00 77.4-----
2024-06-16 11:00 pm E 16 18----30.19+0.01 77.7-----
2024-06-16 10:00 pm E 11 13----30.19+0.01 77.7-----
2024-06-16 09:00 pmENE 13 15----30.19+0.02 77.2-----
2024-06-16 08:00 pmENE 14 16----30.17+0.00 77.4-----
2024-06-16 07:00 pmENE 17 19----30.17+0.00 77.4-----
2024-06-16 06:00 pmENE 19 20----30.16-0.02 77.5-----
2024-06-16 05:00 pmENE 16 18----30.17-0.02 78.3-----
2024-06-16 04:00 pm NE 17 19----30.18-0.02 78.3-----
2024-06-16 03:00 pmENE 16 17----30.19-0.01 78.1-----
2024-06-16 02:00 pmENE 17 19----30.19+0.00 78.1-----
2024-06-16 01:00 pmENE 17 20----30.20+0.01 77.9-----
2024-06-16 12:00 pm NE 17 18----30.20+0.02 78.8-----
2024-06-16 11:00 am NE 18 19----30.19+0.04 78.8-----
2024-06-16 10:00 am NE 13 15----30.19+0.05 78.4-----
2024-06-16 09:00 am NE 16 17----30.17+0.06 77.9-----
2024-06-16 08:00 am NE 15 17----30.15+0.04 77.2-----
2024-06-16 07:00 am NE 15 16----30.13+0.04 77.2-----
2024-06-16 06:00 am NE 14 16----30.12+0.03 77.0-----
2024-06-16 05:00 am NE 12 14----30.11+0.02 76.5-----